Location: *
(43.0409°N, 0.1694°E)
Time: 12:24:07
(UTC+00:00)

IRS-1D - Pass Details

Date: 03 October 2023
Orbit: 738 x 815 km, 98.7° (Epoch: 01 December)

Event Time Altitude Azimuth Distance (km) Brightness Sun altitude
Rises 04:19:02 0° 4° (N) 3,342 7.0 -18.9°
Reaches altitude 10° 04:21:37 10° 354° (N) 2,399 6.1 -18.4°
Maximum altitude 04:26:12 31° 295° (WNW) 1,388 4.4 -17.6°
Enters shadow 04:27:09 29° 275° (W) 1,444 4.4 -17.4°
